Погода в Киземе

Россия / Архангельская область     61°07′23″N   44°49′11″E
темп.,
°C
ветер,
м/с
пор.,
м/с
влажн.,
%
обл.,
%
осадки,
мм/ч
давл.,
гПа
погр.,
м
25 июля, вс
вс2500:00+11зюз2863100 0.0 1013221
03:00+10зюз2767100 0.0 1014176
06:00+11юз3965100 0.0 1014314
09:00+16з484889 0.0 10151351
12:00+16зюз3750100 0.0 10151201
15:00+18зюз4645100 0.0 10151838
18:00+18зюз365036 0.0 10161271
21:00+15юз386563 0.0 1016250
26 июля, пн
пн2600:00+12юз387589 0.0 1017166
03:00+10зюз3118376 0.0 1017229
06:00+13юз498199 0.0 1017253
09:00+19з475621 0.1 1016931
12:00+22зсз51042100 0.4 10152182
15:00+14ссз41184100 0.8 1016565
18:00+16сз37895 1.2 1016721
21:00+12зсз239711 2.1 101668
27 июля, вт
вт2700:00+10сз310968 0.0 1017282
03:00+6сз39970 0.0 1019219
06:00+8сз28920 0.0 1020295
09:00+14сз36567 0.0 1019838
12:00+18сз454031 0.0 10181906
15:00+20сз47355 0.0 10172338
18:00+19сз37405 0.0 10162155
21:00+12зсз25665 0.0 101679
28 июля, ср
ср2800:00+10сз22775 0.0 101732
03:00+8зсз22815 0.0 101623
06:00+12сз126547 0.0 1015148
09:00+18з13458 0.0 1014903
12:00+21з243454 0.0 10111735
15:00+23з3734100 0.0 10092202
18:00+16зюз5127998 0.7 1008577
21:00+14юз249562 1.6 100778
29 июля, чт
чт2900:00+12зюз25964 1.1 100676
03:00+12з22965 1.1 100531
06:00+14зсз13925 0.1 1004111
09:00+21з23635 0.1 1004611
12:00+26зюз244332 0.0 10031648
15:00+24юз344699 0.0 1001947
18:00+24юз484991 0.0 1000555
21:00+16всв239788 1.8 100080